Weather History for Bainbridge, GA

Change the Weather History Date:

Friday, February 8, 2013

  Actual Average (KMAI) Record (KMAI)
Temperature  
Mean Temperature 58 °F 53 °F  
Max Temperature 64 °F 65 °F 80 °F (1999)
Min Temperature 53 °F 42 °F 28 °F (2004)
Degree Days  
Heating Degree Days 6    
Month to date heating degree days  
Since 1 July heating degree days  
Cooling Degree Days 0    
Month to date cooling degree days  
Year to date cooling degree days  
Growing Degree Days 8 (Base 50)    
Moisture  
Dew Point 54 °F    
Average Humidity 88    
Maximum Humidity 100    
Minimum Humidity 72    
Precipitation  
Precipitation 0.00 in 0.18 in 0.16 in (2014)
Month to date precipitation 1.35  
Year to date precipitation 6.39  
Sea Level Pressure  
Sea Level Pressure 30.03 in    
Wind  
Wind Speed 2 mph (NNW)    
Max Wind Speed 8 mph    
Max Gust Speed -    
Visibility 10 miles    
Events      
T = Trace of Precipitation, MM = Missing Value Source: NWS Daily Summary

Daily Weather History Graph

Daily Weather History Graph

Search for Another Location

Airport:

Trip Planner

Search our weather history database for the weather conditions in past years. The results will help you decide how hot, cold, wet, or windy it might be!

Date:

Astronomy

Feb. 08, 2013 Rise Set
Actual Time 7:25 AM EST 6:20 PM EST
Civil Twilight 7:00 AM EST 6:45 PM EST
Nautical Twilight 6:31 AM EST 7:14 PM EST
Astronomical Twilight 6:03 AM EST 7:42 PM EST
Moon 5:50 AM EST (2/8) 4:54 PM EST (2/8)
Length of Visible Light 11h 45m
Length of Day
10h 55m
Waning Crescent, 3% of the Moon is Illuminated
Feb 8
Waning Crescent
Feb 10
New
Feb 17
First Quarter
Feb 25
Full
Mar 4
Last Quarter

Hourly Weather History & Observations

Time (EST) Temp. Dew Point Humidity Pressure Visibility Wind Dir Wind Speed Gust Speed Precip Events Conditions
12:15 AM 57.2 °F 55.4 °F 94% 29.95 in 10.0 mi NE 4.6 mph - N/A   Overcast
12:35 AM 55.4 °F 53.6 °F 94% 29.94 in 10.0 mi NNE 3.5 mph - N/A   Overcast
12:55 AM 53.6 °F 53.6 °F 100% 29.95 in 10.0 mi Calm Calm - N/A   Overcast
1:15 AM 53.6 °F 53.6 °F 100% 29.95 in 10.0 mi Calm Calm - N/A   Overcast
1:35 AM 53.6 °F 53.6 °F 100% 29.95 in 10.0 mi NNE 3.5 mph - N/A   Overcast
1:55 AM 53.6 °F 53.6 °F 100% 29.95 in 10.0 mi Calm Calm - N/A   Overcast
2:15 AM 53.6 °F 53.6 °F 100% 29.95 in 10.0 mi Calm Calm - N/A   Overcast
2:35 AM 53.6 °F 53.6 °F 100% 29.95 in 10.0 mi Calm Calm - N/A   Overcast
2:55 AM 53.6 °F 53.6 °F 100% 29.95 in 10.0 mi Calm Calm - N/A   Overcast
3:15 AM 53.6 °F 53.6 °F 100% 29.95 in 10.0 mi NNW 4.6 mph - N/A   Overcast
3:35 AM 53.6 °F 53.6 °F 100% 29.95 in 10.0 mi NNW 3.5 mph - N/A   Overcast
3:55 AM 53.6 °F 51.8 °F 94% 29.96 in 10.0 mi North 3.5 mph - N/A   Overcast
4:15 AM 53.6 °F 51.8 °F 94% 29.96 in 10.0 mi Calm Calm - N/A   Overcast
4:35 AM 53.6 °F 51.8 °F 94% 29.97 in 10.0 mi Calm Calm - N/A   Overcast
4:55 AM 53.6 °F 51.8 °F 94% 29.97 in 10.0 mi Calm Calm - N/A   Overcast
5:15 AM 53.6 °F 51.8 °F 94% 29.97 in 10.0 mi Calm Calm - N/A   Overcast
5:35 AM 53.6 °F 51.8 °F 94% 29.97 in 10.0 mi Calm Calm - N/A   Overcast
5:55 AM 53.6 °F 51.8 °F 94% 29.97 in 10.0 mi Calm Calm - N/A   Overcast
6:15 AM 53.6 °F 51.8 °F 94% 29.98 in 10.0 mi Calm Calm - N/A   Overcast
6:35 AM 53.6 °F 51.8 °F 94% 29.99 in 10.0 mi Calm Calm - N/A   Overcast
7:15 AM 53.6 °F 51.8 °F 94% 30.01 in 10.0 mi West 3.5 mph - N/A   Overcast
7:35 AM 53.6 °F 51.8 °F 94% 30.02 in 7.0 mi Calm Calm - N/A   Overcast
7:55 AM 53.6 °F 51.8 °F 94% 30.03 in 7.0 mi Calm Calm - N/A   Overcast
8:35 AM 53.6 °F 53.6 °F 100% 30.04 in 3.0 mi Calm Calm - N/A   Overcast
9:15 AM 53.6 °F 53.6 °F 100% 30.04 in 5.0 mi Calm Calm - N/A   Overcast
9:35 AM 53.6 °F 53.6 °F 100% 30.05 in 5.0 mi Calm Calm - N/A   Overcast
9:55 AM 53.6 °F 51.8 °F 94% 30.05 in 5.0 mi Calm Calm - N/A   Overcast
10:15 AM 55.4 °F 53.6 °F 94% 30.06 in 7.0 mi Calm Calm - N/A   Overcast
10:35 AM 57.2 °F 53.6 °F 88% 30.06 in 10.0 mi Calm Calm - N/A   Overcast
10:55 AM 57.2 °F 53.6 °F 88% 30.07 in 10.0 mi Calm Calm - N/A   Overcast
11:15 AM 57.2 °F 53.6 °F 88% 30.07 in 10.0 mi Calm Calm - N/A   Mostly Cloudy
11:35 AM 57.2 °F 53.6 °F 88% 30.07 in 10.0 mi West 3.5 mph - N/A   Mostly Cloudy
11:55 AM 59.0 °F 55.4 °F 88% 30.06 in 10.0 mi WNW 3.5 mph - N/A   Overcast
12:15 PM 59.0 °F 53.6 °F 82% 30.07 in 10.0 mi WNW 5.8 mph - N/A   Overcast
12:35 PM 59.0 °F 53.6 °F 82% 30.06 in 10.0 mi NW 4.6 mph - N/A   Overcast
12:55 PM 60.8 °F 53.6 °F 77% 30.06 in 10.0 mi NW 5.8 mph - N/A   Overcast
1:15 PM 60.8 °F 53.6 °F 77% 30.06 in 10.0 mi NW 4.6 mph - N/A   Overcast
1:35 PM 62.6 °F 55.4 °F 77% 30.05 in 10.0 mi WNW 5.8 mph - N/A   Overcast
2:15 PM 62.6 °F 53.6 °F 72% 30.03 in 10.0 mi West 5.8 mph - N/A   Mostly Cloudy
2:35 PM 62.6 °F 55.4 °F 77% 30.03 in 10.0 mi West 5.8 mph - N/A   Scattered Clouds
2:55 PM 64.4 °F 55.4 °F 73% 30.02 in 10.0 mi West 3.5 mph - N/A   Scattered Clouds
3:15 PM 64.4 °F 55.4 °F 73% 30.02 in 10.0 mi West 5.8 mph - N/A   Scattered Clouds
3:35 PM 64.4 °F 55.4 °F 73% 30.03 in 10.0 mi West 6.9 mph - N/A   Scattered Clouds
3:55 PM 64.4 °F 55.4 °F 73% 30.03 in 10.0 mi West 4.6 mph - N/A   Mostly Cloudy
4:15 PM 64.4 °F 55.4 °F 73% 30.03 in 10.0 mi WNW 3.5 mph - N/A   Overcast
4:35 PM 64.4 °F 55.4 °F 73% 30.03 in 10.0 mi Calm Calm - N/A   Mostly Cloudy
4:55 PM 64.4 °F 55.4 °F 73% 30.03 in 10.0 mi Calm Calm - N/A   Mostly Cloudy
5:15 PM 64.4 °F 55.4 °F 73% 30.03 in 10.0 mi Calm Calm - N/A   Scattered Clouds
5:35 PM 64.4 °F 55.4 °F 73% 30.04 in 10.0 mi Calm Calm - N/A   Scattered Clouds
5:55 PM 64.4 °F 55.4 °F 73% 30.04 in 10.0 mi Calm Calm - N/A   Scattered Clouds
6:15 PM 62.6 °F 55.4 °F 77% 30.04 in 10.0 mi NE 3.5 mph - N/A   Clear
6:35 PM 62.6 °F 57.2 °F 82% 30.05 in 10.0 mi Calm Calm - N/A   Scattered Clouds
7:15 PM 60.8 °F 57.2 °F 88% 30.06 in 10.0 mi Calm Calm - N/A   Mostly Cloudy
7:35 PM 60.8 °F 55.4 °F 82% 30.07 in 10.0 mi NNE 3.5 mph - N/A   Mostly Cloudy
7:55 PM 60.8 °F 57.2 °F 88% 30.08 in 10.0 mi NNE 4.6 mph - N/A   Overcast
8:15 PM 60.8 °F 55.4 °F 82% 30.09 in 10.0 mi NNE 5.8 mph - N/A   Mostly Cloudy
8:35 PM 60.8 °F 55.4 °F 82% 30.09 in 10.0 mi NNE 3.5 mph - N/A   Mostly Cloudy
8:55 PM 59.0 °F 55.4 °F 88% 30.10 in 10.0 mi NNE 3.5 mph - N/A   Scattered Clouds
9:15 PM 59.0 °F 55.4 °F 88% 30.10 in 10.0 mi North 8.1 mph - N/A   Clear
9:55 PM 57.2 °F 53.6 °F 88% 30.13 in 10.0 mi NNW 6.9 mph - N/A   Scattered Clouds
10:15 PM 57.2 °F 53.6 °F 88% 30.14 in 10.0 mi NNW 5.8 mph - N/A   Scattered Clouds
10:35 PM 57.2 °F 53.6 °F 88% 30.14 in 10.0 mi NNW 4.6 mph - N/A   Clear
10:55 PM 57.2 °F 53.6 °F 88% 30.14 in 10.0 mi NNW 3.5 mph - N/A   Clear
11:15 PM 55.4 °F 53.6 °F 94% 30.15 in 10.0 mi NNW 3.5 mph - N/A   Clear
11:35 PM 53.6 °F 51.8 °F 94% 30.15 in 10.0 mi NNW 4.6 mph - N/A   Clear
11:55 PM 53.6 °F 51.8 °F 94% 30.15 in 10.0 mi NNW 4.6 mph - N/A   Mostly Cloudy